www.pogodaiklimat.ru

Погода и климат >> Архив погоды >> Россия >> Якутия >> Охотский Перевоз


ПОГОДА в Охотском Перевозе

  • Прогноз погоды в Охотском Перевозе
  • Монитор погоды в Охотском Перевозе

АРХИВ ПОГОДЫ в Охотском Перевозе

Время (UTC), дата Ветер
(напр.,м/с)
 
Видим.   Явления Облачность Т
(С)
Тd
(С)
f
(%)
Тe
(С)
Тes
(С)
Комфортность P
(гПа)
Po
(гПа)
Тmin
(С)
Tmax
(С)
R
(мм)
R24
(мм)
S
(см)
18 14.07 ЮЗ 1 20 км ясно +14.6 +14.6 100 +15 +15 1007.1 990.5
21 14.07 СЗ 2 20 км ясно +15.0 +13.6 91 +15 +17 1007.5 990.9 +14.0
00 15.07 штиль 0 20 км ясно +20.2 +15.9 76 +23 +35 комфорт 1007.2 991.0
03 15.07 штиль 0 20 км 5/1 600 м
[Cu med, cong Ci fib]
+26.5 +16.9 56 +30 +45 душно 1006.0 990.4
06 15.07 ЮВ 3 20 км 6/4 600 м
[Cb calv Ci fib]
+28.0 +15.1 45 +31 +35 душно 1005.0 989.2
09 15.07 С 3 10 км дым 9/3 600 м
[Cu med, cong Ac As Ci fib]
+26.3 +16.5 55 +30 +31 душно 1004.8 988.9 +29.1
12 15.07 СЗ 3 10 км гроза, ливневой дождь 10/9 600 м
[Cb calv Ci fib]
+24.0 +16.2 62 +27 +27 жарко 1005.6 989.6
15 15.07 С 2 4000 м дым {гроза} 9/9 1000 м
[Sc diur, vesp]
+17.7 +17.2 97 +18 +18 1006.4 990.0
18 15.07 С 2 4000 м дым {гроза} 9/8 1000 м
[Sc diur, vesp Ac trans Ci fib]
+17.4 +17.1 98 +18 +18 1006.4 990.0
21 15.07 С 1 4000 м дым 4/3 1000 м
[Cu Sc Ci fib]
+17.2 +16.9 98 +18 +20 1006.2 989.7 +16.0 0.3
00 16.07 С 3 4000 м дым 8/8 600 м
[Cu med, cong]
+20.0 +18.1 89 +23 +25 комфорт 1006.4 990.2
03 16.07 штиль 0 10 км дым 5/5 600 м
[Cb calv]
+23.4 +18.0 72 +29 +38 душно 1005.6 989.5
06 16.07 ЮВ 2 20 км гроза без осадков 8/8 600 м
[Cb cap Ci sp]
+23.6 +16.6 65 +27 +29 жарко 1004.3 988.2
09 16.07 штиль 0 20 км {гроза} 9/4 600 м
[Cb calv Ac cuf Ci sp]
+24.6 +16.1 59 +28 +29 душно 1003.5 987.5 +26.9
12 16.07 Ю 1 20 км {гроза} 6/3 600 м
[Cb calv Ac cuf Ci fib]
+21.6 +16.9 75 +26 +26 душно 1004.2 988.0
15 16.07 ЮЗ 1 10 км 8/8 600 м
[Cu Sc]
+16.3 +13.8 85 +17 +17 1004.9 988.3
18 16.07 ЮЗ 1 н/о +12.1 +13 +13 1005.4 988.7
21 16.07 штиль 0 20 км 6/6 1000 м
[Sc]
+14.2 +12.6 90 +14 +15 1005.8 989.1 +12.5
00 17.07 ЮВ 2 20 км 3/3 1000 м
[Sc]
+20.0 +13.4 66 +23 +29 комфорт 1004.9 988.6
03 17.07 ЮВ 2 20 км 5/3 600 м
[Cu med, cong Ci fib]
+23.6 +14.1 55 +26 +34 жарко 1004.0 987.9
06 17.07 штиль 0 20 км 5/3 600 м
[Cu med, cong Ci fib]
+26.8 +6.8 28 +26 +34 жарко 1002.5 986.6
09 17.07 СЗ 3 20 км 8/0
[Ci fib]
+25.8 +6.5 29 +25 +27 комфорт 1001.4 985.5 +27.6
12 17.07 Ю 1 10 км дым 4/1 1000 м
[Sc diur, vesp Ci fib]
+19.8 +10.6 55 +22 +22 комфорт 1001.6 985.3
15 17.07 Ю 2 4000 м дым 9/9 1000 м
[Sc]
+17.4 +7.8 53 +18 +18 1000.9 984.5
18 17.07 Ю 1 4000 м дождь 9/9 1000 м
[Sc]
+16.0 +10.8 71 +17 +17 1000.2 983.7
21 17.07 Ю 2 4000 м дождь 10/10 1000 м
[Frnb]
+14.4 +13.1 92 +14 +14 999.5 983.0 +14.2 4
00 18.07 Ю 2 10 км дым {дождь} 9/9 1000 м
[Cu Sc]
+15.3 +13.7 90 +15 +16 998.5 982.1
03 18.07 Ю 4 10 км дым 9/8 600 м
[Frnb Ci fib]
+16.4 +13.2 81 +16 +17 998.5 982.2
06 18.07 ЮЗ 3 10 км в посл. час ливневой дождь 9/9 600 м
[Cb calv]
+15.8 +15.6 99 +15 +16 999.3 982.8
09 18.07 СЗ 3 20 км 9/9 600 м
[Cb calv]
+17.7 +12.3 71 +18 +18 1000.0 983.6 +19.0 6
12 18.07 СЗ 2 20 км 9/9 600 м
[Cb calv]
+15.4 +11.5 78 +15 +15 1001.5 985.0
15 18.07 СЗ 3 4000 м слаб. морось 10/10 600 м
[Frnb]
+10.7 +10.3 97 +9 +9 1003.0 986.3
18 18.07 СЗ 2 4000 м слаб. морось 10/10 600 м
[Frnb]
+8.4 +8.0 97 +6 +6 1004.0 987.1
21 18.07 штиль 0 20 км {морось} 10/4 600 м
[Frnb As op]
+8.7 +8.1 96 +8 +8 1004.8 987.8 +8.4 0.5
00 19.07 ЮЗ 1 20 км {морось} 10/4 600 м
[Frnb As op]
+9.9 +8.5 91 +9 +11 1006.0 989.1
03 19.07 З 1 20 км 10/10 1000 м
[Sc]
+11.3 +9.5 89 +11 +11 1007.5 990.7
06 19.07 штиль 0 20 км 10/10 1000 м
[Sc]
+11.8 +8.1 78 +11 +11 1008.9 992.1
09 19.07 штиль 0 10 км дождь {морось} 10/10 600 м
[Frnb]
+11.1 +8.7 85 +10 +10 1010.4 993.5 +12.4 0.1
12 19.07 ЮЗ 1 20 км в посл. час дождь {морось} 10/8 600 м
[Frnb As op]
+9.5 +8.5 93 +9 +9 1013.2 996.2
15 19.07 ЮЗ 1 10 км 10/8 600 м
[Frnb As op]
+8.8 +8.0 95 +8 +8 1012.6 995.6
18 19.07 Ю 1 10 км 10/8 600 м
[Frnb As op]
+8.1 +7.9 99 +7 +7 1013.7 996.6
21 19.07 З 1 20 км 10/10 600 м
[Frnb]
+7.9 +7.9 100 +7 +7 1015.2 998.0 +7.7 0.6
00 20.07 З 1 20 км 10/10 600 м
[Frnb]
+8.8 +8.0 95 +8 +8 1016.2 999.1
03 20.07 ЮВ 1 20 км 10/10 1000 м
[Frnb]
+11.7 +6.7 71 +12 +12 1017.0 1000.0
06 20.07 Ю 1 20 км {дождь} 9/9 1000 м
[Frnb]
+12.5 +5.9 64 +13 +14 1017.3 1000.4
09 20.07 Ю 1 20 км 8/8 1000 м
[Cu Sc]
+13.3 +9.2 76 +14 +14 1017.8 1001.0 +14.0 0.0
12 20.07 З 1 20 км 8/8 1000 м
[Sc]
+11.8 +9.4 85 +12 +12 1018.7 1001.7
15 20.07 З 1 10 км 8/8 1000 м
[Sc]
+9.7 +8.9 95 +9 +9 1019.5 1002.4
18 20.07 ЮЗ 1 10 км 3/3 1000 м
[Sc]
+6.6 +6.4 99 +5 +5 1019.9 1002.5
21 20.07 СЗ 1 4000 м туман поземный ясно +6.7 +6.0 95 +6 +8 1021.0 1003.6 +5.3
00 21.07 ЮВ 1 20 км ясно +12.7 +8.9 78 +13 +23 1020.6 1003.6
03 21.07 СВ 1 10 км дым 4/4 600 м
[Cu med, cong]
+17.2 +6.2 48 +18 +27 1019.6 1002.9
06 21.07 СВ 2 10 км дым 5/0
[Cs]
+19.4 +5.9 41 +21 +28 комфорт 1017.5 1001.0
09 21.07 С 1 10 км дым 5/0
[Ci fib]
+20.3 +6.7 41 +22 +24 комфорт 1016.1 999.6 +20.4
12 21.07 штиль 0 20 км 3/0
[Ci fib]
+14.6 +10.0 74 +14 +14 1015.9 999.1

 

Местоположение метеостанции Охотский Перевоз (Якутия, Россия): широта 61.87 долгота 135.50 высота над уровнем моря 141 м.

В архиве по умолчанию представлена погода в Охотском Перевозе за последнюю неделю. Архивные данные за месяц целиком и за предыдущие месяцы, начиная с января 2011 года, Вы можете получить, выбрав интересующий диапазон дат из раскрывающегося списка и нажав кнопку "Ввод!".


*Определитесь, кто Вы:
робот инопланетянин человек

Внимание! Время в таблицах - всемирное. Для получения местного времени необходимо прибавить поправку, которая равна 9 ч.

Смотрите также архив погоды в соседних городах и на ближайших метеорологических станциях:

Погода в Ытык-Кюёле (Якутия, Россия) (118 км)
Погода в Крест-Хальджае (Якутия, Россия) (120 км)
Погода в Теплом Ключе (Якутия, Россия) (121 км)
Погода в Чурапче (Якутия, Россия) (153 км)
Погода в Усть-Мае (Якутия, Россия) (179 км)
Погода в Амге (Якутия, Россия) (220 км)
Погода в Томпо (Якутия, Россия) (232 км)
Погода в Верхоянском Перевозе (Якутия, Россия) (241 км)
Погода в Восточной (Якутия, Россия) (259 км)
Погода в Югоренке (Якутия, Россия) (260 км)

Пояснения к столбцам:

Ветер - указаны скорость ветра в м/с - средняя за 10 мин, порывы в срок и между сроками (в фигурных скобках) и направление, откуда дует ветер: С - северный, СВ - северо-восточный, В - восточный, ЮВ - юго-восточный, Ю - южный, ЮЗ - юго-западный, З - западный, СЗ - северо-западный.
Видимость - горизонтальная дальность видимости в метрах или километрах. При видимости от 1 до 10 км при отсутствии осадков обычно наблюдается дымка, при ухудшении видимости до 1 км и менее - туман. В сухую погоду видимость может ухудшаться дымом, пылью или мглою.
Явления - указаны атмосферные явления, наблюдавшиеся в срок или в последний час перед сроком; фигурными скобками обозначены явления, наблюдавшиеся между сроками (за 1-3 часа до срока); квадратными скобками обозначены град или гололедные отложения с указанием их диаметра в мм.
Облачность - указаны через наклонную черту общая и нижняя облачность в баллах и высота нижней границы облаков в метрах; квадратными скобками обозначены формы облаков: Ci - перистые, Cs - перисто-слоистые, Cc - перисто-кучевые, Ac - высококучевые, As - высокослоистые, Sc - слоисто-кучевые, Ns - слоисто-дождевые, Cu - кучевые, Cb - кучево-дождевые. Подробнее классификацию облаков см. в Атласе облаков (PDF).
T - Температура воздуха - температура, измеренная на высоте 2 м над землей.
Td - Температура точки росы - температура, при понижении до которой содержащийся в воздухе водяной пар достигнет насыщения.
f - Относительная влажность воздуха - влажноcть воздуха, измеренная на высоте 2 м над землей.
Te - Эффективная температура - температура, которую ощущает одетый по сезону человек в тени. Характеристика душности погоды. При расчете учитывается влияние влажности воздуха и скорости ветра на теплоощущения человека.
Tes - Эффективная температура на солнце - температура, которую ощущает человек, с поправкой на солнечный нагрев. Характеристика знойности погоды. Зависит от высоты солнца над горизонтом, облачности и скорости ветра. Ночью, в пасмурную погоду, а также при ветре 12 м/с и более поправка равна нулю.
P - Атмосферное давление - приведенное к уровню моря атмосферное давление.
Po - Атмосферное давление - измеренное на уровне метеостанции атмосферное давление.
Tmin - Минимальная температура - минимум температуры воздуха на высоте 2 м над землей.
Tmax - Максимальная температура - максимум температуры воздуха на высоте 2 м над землей.
R - Количество осадков - Количество выпавших осадков за период времени, мм. При наведении курсора мыши на число - период времени, за который выпало указанное количество осадков.
R24 - Количество осадков - Количество выпавших осадков за 24 часа, мм.
S - Снежный покров - Высота снежного покрова, см. При наведении курсора мыши на число - состояние снежного покрова и степень покрытия местности в баллах.